[TLELIST] Archives

 

[list_settings.list_name] Current TLEs

November 19th 2021 PDT

HST 1 20580U 90037B 21323.15093705 .00000658 00000-0 28683-4 0 9995 2 20580 28.4693 121.3613 0002490 292.3424 230.7899 15.09843071534667 ISS (ZARYA) 1 25544U 98067A 21323.36049569 .00011656 00000-0 22241-3 0 9996 2 25544 51.6445 295.4484 0004564 219.3415 292.7247 15.48602948312643 CXO 1 25867U 99040B 21324.13203450 .00000623 00000-0 00000-0 0 9991 2 25867 51.2190 248.2605 8557273 227.9948 359.8698 0.37804732 11030 ____________________________________________________________________ These 2-Line ...Continue Reading

[list_settings.list_name] Current TLEs

November 18th 2021 PDT

HST 1 20580U 90037B 21321.89248979 .00000706 00000-0 31573-4 0 9995 2 20580 28.4691 129.6908 0002471 277.6232 231.7395 15.09842021534201 ISS (ZARYA) 1 25544U 98067A 21322.39342017 .00001764 00000-0 40729-4 0 9993 2 25544 51.6446 300.2254 0004723 212.1243 305.0050 15.48591494312497 CXO 1 25867U 99040B 21324.13198455 .00000623 00000-0 00000-0 0 9999 2 25867 51.2202 248.2616 8557253 227.9937 359.8635 0.37805262 11021 ____________________________________________________________________ These 2-Line ...Continue Reading

[list_settings.list_name] Current TLEs

November 17th 2021 PDT

HST 1 20580U 90037B 21320.89452227 .00000685 00000-0 30306-4 0 9996 2 20580 28.4690 136.2962 0002465 266.0591 208.1653 15.09840853534056 ISS (ZARYA) 1 25544U 98067A 21320.89407503 .00001274 00000-0 31719-4 0 9993 2 25544 51.6448 307.6371 0004680 205.5068 227.3797 15.48583252312265 CXO 1 25867U 99040B 21324.13132742 .00000623 00000-0 00000+0 0 9995 2 25867 51.2202 248.2616 8557241 227.9937 359.7751 0.37805155 22164 ____________________________________________________________________ These 2-Line ...Continue Reading

[list_settings.list_name] Current TLEs

November 16th 2021 PDT

HST 1 20580U 90037B 21319.90234606 .00000706 00000-0 31553-4 0 9994 2 20580 28.4689 142.8633 0002467 254.4114 216.2198 15.09839933533900 ISS (ZARYA) 1 25544U 98067A 21320.45357600 .00001273 00000-0 31699-4 0 9993 2 25544 51.6447 309.8146 0004630 203.2970 292.2322 15.48581711312195 CXO 1 25867U 99040B 21321.48831443 .00000577 00000-0 00000-0 0 9993 2 25867 51.2906 248.3930 8551981 227.9399 0.0080 0.37805558 11012 ____________________________________________________________________ These 2-Line ...Continue Reading

[list_settings.list_name] Current TLEs

November 15th 2021 PDT

HST 1 20580U 90037B 21318.91644708 .00000674 00000-0 29651-4 0 9992 2 20580 28.4688 149.3889 0002480 243.0276 258.2008 15.09838691533751 ISS (ZARYA) 1 25544U 98067A 21319.35739993 .00000631 00000-0 19891-4 0 9996 2 25544 51.6444 315.2349 0004653 199.5072 300.9261 15.48575718312024 CXO 1 25867U 99040B 21321.48831443 .00000577 00000-0 00000-0 0 9993 2 25867 51.2906 248.3930 8551981 227.9399 0.0080 0.37805558 11012 ____________________________________________________________________ These 2-Line ...Continue Reading

[list_settings.list_name] Current TLEs

November 14th 2021 PDT

HST 1 20580U 90037B 21317.98801201 .00000700 00000-0 31209-4 0 9993 2 20580 28.4687 155.5342 0002506 232.1805 252.6088 15.09837809533889 ISS (ZARYA) 1 25544U 98067A 21318.39216742 -.00002430 00000-0 -36485-4 0 9990 2 25544 51.6444 320.0103 0004500 199.7233 316.1136 15.48586344311877 CXO 1 25867U 99040B 21318.84433161 .00000634 00000-0 00000-0 0 9998 2 25867 51.3446 248.5032 8545566 227.9090 0.0857 0.37805266 11004 ____________________________________________________________________ These 2-Line ...Continue Reading

[list_settings.list_name] Current TLEs

November 13th 2021 PDT

HST 1 20580U 90037B 21316.91123808 .00000750 00000-0 34234-4 0 9991 2 20580 28.4688 162.6613 0002541 219.6464 160.8248 15.09836774533710 ISS (ZARYA) 1 25544U 98067A 21317.09199233 -.00062698 00000-0 -11569-2 0 9997 2 25544 51.6420 326.4377 0004587 195.0939 267.6622 15.48545689311676 CXO 1 25867U 99040B 21318.84433161 .00000634 00000-0 00000-0 0 9998 2 25867 51.3446 248.5032 8545566 227.9090 0.0857 0.37805266 11004 ____________________________________________________________________ These 2-Line ...Continue Reading

[list_settings.list_name] Current TLEs

November 12th 2021 PDT

HST 1 20580U 90037B 21315.93357512 .00000835 00000-0 39365-4 0 9997 2 20580 28.4689 169.1324 0002575 208.6430 247.2907 15.09835878533301 ISS (ZARYA) 1 25544U 98067A 21316.37707051 .00001300 00000-0 32222-4 0 9992 2 25544 51.6438 329.9691 0005057 189.6436 244.9087 15.48561279311560 CXO 1 25867U 99040B 21318.84433161 .00000634 00000-0 00000+0 0 9997 2 25867 51.3446 248.5032 8545566 227.9090 0.0857 0.37805266 22141 ____________________________________________________________________ These 2-Line ...Continue Reading

[list_settings.list_name] Current TLEs

November 11th 2021 PDT

HST 1 20580U 90037B 21314.87124795 .00000906 00000-0 43631-4 0 9994 2 20580 28.4690 176.1638 0002613 196.9255 233.3773 15.09834503533149 ISS (ZARYA) 1 25544U 98067A 21315.42066674 -.00085578 00000-0 -15882-2 0 9998 2 25544 51.6443 334.6986 0004764 189.0657 310.1803 15.48519610311417 CXO 1 25867U 99040B 21316.20009708 .00000744 00000-0 00000-0 0 9994 2 25867 51.3781 248.5927 8540232 227.9003 0.0837 0.37808087 11000 ____________________________________________________________________ These 2-Line ...Continue Reading

[list_settings.list_name] Current TLEs

November 10th 2021 PDT

HST 1 20580U 90037B 21314.08895170 .00000976 00000-0 47851-4 0 9994 2 20580 28.4690 181.3416 0002637 188.4133 301.3614 15.09833290533296 ISS (ZARYA) 1 25544U 98067A 21313.92338576 .00004459 00000-0 89073-4 0 9996 2 25544 51.6446 342.1010 0003156 191.4529 233.8244 15.48988722311189 CXO 1 25867U 99040B 21316.19972564 .00000744 00000-0 00000-0 0 9991 2 25867 51.3783 248.5932 8540135 227.9001 0.0339 0.37808787 10999 ____________________________________________________________________ These 2-Line ...Continue Reading
  • This mailing list is a public mailing list - anyone may join or leave, at any time.
  • This mailing list is announce-only.

International Space Station (ISS) / Hubble Space Telescope (HST) / Chandra X-Ray Observatory Orbital Data via EMAIL

Privacy Policy:

Private list